EW6390 Weather Reports


time (UTC)temp
F
wind
direction
speed
knots
gust
knots
rain 1hr
in
rain 24hr
in
rain mn
in
humidity
%
barometer
mb
20260509024145 59 243 0.0 0.0 0.00 0.00 0.00 80 1014.5
20260509023646 59 243 0.0 0.0 0.00 0.00 0.00 81 1014.4
20260509023146 59 243 0.0 0.0 0.00 0.00 0.00 80 1014.4
20260509022647 59 243 0.0 0.0 0.00 0.00 0.00 80 1014.3
20260509022148 59 243 0.0 0.0 0.00 0.00 0.00 79 1014.3
20260509021647 59 243 0.0 0.0 0.00 0.00 0.00 79 1014.4
20260509021152 60 243 0.0 0.0 0.00 0.00 0.00 78 1014.6
20260509021146 60 243 0.0 0.0 0.00 0.00 0.00 80 1014.5
20260509020146 60 243 0.0 0.0 0.00 0.00 0.00 79 1014.5
20260509015646 60 243 0.0 0.0 0.00 0.00 0.00 79 1014.5
20260509015149 60 243 0.0 0.0 0.00 0.00 0.00 78 1014.5
20260509015145 60 243 0.0 0.0 0.00 0.00 0.00 79 1014.5
20260509014145 60 243 0.0 0.0 0.00 0.00 0.00 77 1014.5
20260509013644 61 243 0.0 0.0 0.00 0.00 0.00 77 1014.4
20260509013144 61 243 0.0 0.0 0.00 0.00 0.00 77 1014.3
20260509012645 61 243 0.0 0.0 0.00 0.00 0.00 75 1014.3
20260509012144 61 243 0.0 0.0 0.00 0.00 0.00 73 1014.2
20260509011645 62 243 0.0 0.0 0.00 0.00 0.00 73 1014.2
20260509011145 62 243 0.0 0.0 0.00 0.00 0.00 73 1014.1
20260509010651 63 243 0.0 0.0 0.00 0.00 0.00 72 1014.0
20260509010645 62 243 0.0 0.0 0.00 0.00 0.00 73 1014.1
20260509005642 63 243 0.0 0.0 0.00 0.00 0.00 69 1014.0
20260509005141 63 243 0.0 0.0 0.00 0.00 0.00 68 1014.0
20260509004640 63 243 0.0 0.0 0.00 0.00 0.00 70 1014.1
20260509004139 64 243 0.0 0.0 0.00 0.00 0.00 67 1014.1
20260509003640 64 243 0.0 0.0 0.00 0.00 0.00 67 1013.9
20260509003139 64 243 0.0 0.0 0.00 0.00 0.00 65 1014.1
20260509002641 64 243 0.0 0.0 0.00 0.00 0.00 65 1014.1
20260509002145 65 243 0.0 0.0 0.00 0.00 0.00 64 1014.0
20260509002141 65 243 0.0 0.0 0.00 0.00 0.00 65 1014.1
20260509001137 65 243 0.0 0.0 0.00 0.00 0.00 63 1013.9
20260509000638 65 243 0.0 0.0 0.00 0.00 0.00 63 1013.8
20260509000139 65 243 0.0 0.0 0.00 0.00 0.00 62 1013.8
20260508235639 66 243 0.0 0.0 0.00 0.00 0.00 62 1013.8
20260508235137 66 243 0.0 0.0 0.00 0.00 0.00 61 1013.7
20260508234645 66 243 0.0 0.0 0.00 0.00 0.00 60 1013.6
20260508234639 66 243 0.0 0.0 0.00 0.00 0.00 60 1013.6
20260508233643 67 226 0.0 0.0 0.00 0.00 0.00 58 1013.8
20260508233638 67 243 0.0 0.0 0.00 0.00 0.00 59 1013.7
20260508232639 67 226 0.0 0.0 0.00 0.00 0.00 58 1013.9
20260508232136 67 207 0.0 0.0 0.00 0.00 0.00 58 1013.8
20260508231636 67 239 0.0 1.7 0.00 0.00 0.00 56 1013.9
20260508231137 67 239 0.0 1.7 0.00 0.00 0.00 55 1013.7
20260508230637 67 237 0.0 1.7 0.00 0.00 0.00 56 1013.7
20260508230136 68 214 0.0 1.7 0.00 0.00 0.00 55 1013.7
20260508225636 68 263 0.0 1.7 0.00 0.00 0.00 55 1013.7
20260508225135 68 237 0.0 0.9 0.00 0.00 0.00 55 1013.7
20260508224636 68 223 0.0 0.9 0.00 0.00 0.00 55 1013.7
20260508224137 68 155 0.0 1.7 0.00 0.00 0.00 54 1013.6
20260508223641 68 220 0.0 3.5 0.00 0.00 0.00 54 1013.8
20260508223636 68 217 0.9 3.5 0.00 0.00 0.00 54 1013.8
20260508223259 68 230 0.0 0.9 0.00 0.00 0.00 54 1013.9
20260508222141 68 262 0.0 0.9 0.00 0.00 0.00 52 1013.7
20260508222136 68 230 0.0 0.9 0.00 0.00 0.00 53 1013.7
20260508221136 69 155 0.9 3.5 0.00 0.00 0.00 52 1013.6
20260508220636 69 144 0.9 3.5 0.00 0.00 0.00 52 1013.7
20260508220137 69 213 0.0 2.6 0.00 0.00 0.00 52 1013.7
20260508215637 69 248 0.0 2.6 0.00 0.00 0.00 52 1013.7
20260508215141 69 222 0.0 2.6 0.00 0.00 0.00 50 1013.6
20260508215135 69 208 0.0 2.6 0.00 0.00 0.00 53 1013.5
20260508214754 69 258 0.9 5.2 0.00 0.00 0.00 51 1013.7
20260508214136 69 239 0.0 2.6 0.00 0.00 0.00 51 1013.7
20260508213637 69 181 0.9 3.5 0.00 0.00 0.00 52 1013.7
20260508212635 69 236 0.9 5.2 0.00 0.00 0.00 49 1013.7
20260508212137 69 236 0.9 5.2 0.00 0.00 0.00 50 1013.7
20260508211637 70 230 1.7 6.1 0.00 0.00 0.00 49 1013.8
20260508211136 70 329 0.9 6.1 0.00 0.00 0.00 50 1013.8
20260508210141 70 248 0.9 5.2 0.00 0.00 0.00 50 1013.7
20260508210136 70 203 0.9 3.5 0.00 0.00 0.00 48 1013.6
20260508205137 70 244 0.9 5.2 0.00 0.00 0.00 49 1013.7
20260508204637 70 250 0.9 3.5 0.00 0.00 0.00 48 1013.8
20260508204141 70 233 0.9 3.5 0.00 0.00 0.00 48 1013.8
20260508204136 70 163 0.9 3.5 0.00 0.00 0.00 49 1013.8
20260508203135 70 219 0.9 2.6 0.00 0.00 0.00 48 1013.7
20260508202635 70 230 0.0 1.7 0.00 0.00 0.00 49 1013.8
20260508202137 70 265 0.9 5.2 0.00 0.00 0.00 49 1013.8
20260508201636 70 219 0.9 5.2 0.00 0.00 0.00 46 1013.9
20260508201136 70 236 0.0 4.3 0.00 0.00 0.00 47 1014.1
20260508200640 70 220 0.0 0.9 0.00 0.00 0.00 48 1014.2
20260508200636 70 42 0.0 2.6 0.00 0.00 0.00 47 1014.1
20260508195636 70 266 0.0 2.6 0.00 0.00 0.00 49 1014.3
20260508195136 70 141 0.0 2.6 0.00 0.00 0.00 48 1014.4
20260508194636 70 238 0.9 3.5 0.00 0.00 0.00 47 1014.5
20260508194135 70 225 0.9 3.5 0.00 0.00 0.00 46 1014.6
20260508193636 71 245 0.0 1.7 0.00 0.00 0.00 46 1014.6
20260508193137 71 222 0.0 1.7 0.00 0.00 0.00 46 1014.6
20260508192637 70 219 0.0 3.5 0.00 0.00 0.00 47 1014.9
20260508192135 71 245 0.0 3.5 0.00 0.00 0.00 45 1015.0
20260508191640 72 236 1.7 5.2 0.00 0.00 0.00 45 1015.0
20260508191635 71 74 0.9 5.2 0.00 0.00 0.00 45 1015.0
20260508190634 73 261 0.9 5.2 0.00 0.00 0.00 42 1015.0
20260508190133 73 227 0.9 3.5 0.00 0.00 0.00 45 1015.1
20260508185633 73 53 1.7 5.2 0.00 0.00 0.00 45 1015.2
20260508185134 73 271 1.7 6.1 0.00 0.00 0.00 42 1015.3
20260508184631 73 271 0.9 6.1 0.00 0.00 0.00 42 1015.3
20260508184132 74 161 0.9 3.5 0.00 0.00 0.00 40 1015.4
20260508183631 73 229 0.0 1.7 0.00 0.00 0.00 46 1015.6
20260508183131 73 352 0.9 2.6 0.00 0.00 0.00 44 1015.6
20260508182629 72 144 0.9 3.5 0.00 0.00 0.00 46 1015.7
20260508182130 71 160 0.9 3.5 0.00 0.00 0.00 47 1015.7
20260508181630 71 125 0.9 2.6 0.00 0.00 0.00 46 1015.7
20260508181131 72 236 0.9 4.3 0.00 0.00 0.00 45 1016.0
20260508180629 71 89 0.0 4.3 0.00 0.00 0.00 48 1015.9
20260508180129 71 155 0.9 4.3 0.00 0.00 0.00 44 1016.0
20260508175631 71 236 0.9 4.3 0.00 0.00 0.00 46 1016.1
20260508175129 71 236 0.9 3.5 0.00 0.00 0.00 45 1016.1
20260508174629 71 0 0.9 5.2 0.00 0.00 0.00 47 1016.1
20260508174129 71 122 1.7 5.2 0.00 0.00 0.00 48 1016.1
20260508173629 71 258 0.9 4.3 0.00 0.00 0.00 45 1016.1
20260508173134 70 191 0.0 1.7 0.00 0.00 0.00 46 1016.3
20260508173128 71 128 0.0 4.3 0.00 0.00 0.00 50 1016.3
20260508172129 70 15 0.0 1.7 0.00 0.00 0.00 45 1016.3
20260508171627 71 191 0.0 2.6 0.00 0.00 0.00 43 1016.4
20260508171132 72 252 0.9 3.5 0.00 0.00 0.00 45 1016.8
20260508171127 71 235 0.0 2.6 0.00 0.00 0.00 45 1016.6
20260508170128 71 86 0.9 4.3 0.00 0.00 0.00 46 1016.7
20260508165627 71 208 0.9 4.3 0.00 0.00 0.00 44 1016.8
20260508165127 70 119 0.0 2.6 0.00 0.00 0.00 50 1016.9
20260508164628 69 59 0.9 3.5 0.00 0.00 0.00 50 1016.9
20260508164128 70 93 0.0 3.5 0.00 0.00 0.00 46 1017.0
20260508163626 71 46 0.0 1.7 0.00 0.00 0.00 44 1017.1
20260508163248 71 183 0.9 2.6 0.00 0.00 0.00 42 1017.3
20260508163130 71 117 0.0 2.6 0.00 0.00 0.00 48 1017.3
20260508163126 71 106 0.0 1.7 0.00 0.00 0.00 45 1017.2
20260508161625 72 233 0.9 2.6 0.00 0.00 0.00 43 1017.3
20260508161125 71 119 0.9 4.3 0.00 0.00 0.00 48 1017.3
20260508160626 71 210 0.9 4.3 0.00 0.00 0.00 44 1017.3
20260508160131 71 163 0.0 2.6 0.00 0.00 0.00 47 1017.5
20260508160125 71 235 0.0 2.6 0.00 0.00 0.00 47 1017.4
20260508155126 71 81 0.0 2.6 0.00 0.00 0.00 44 1017.6
20260508154623 71 278 0.0 1.7 0.00 0.00 0.00 44 1017.7
20260508154130 70 319 0.0 3.5 0.00 0.00 0.00 49 1017.7
20260508154125 71 65 0.0 1.7 0.00 0.00 0.00 44 1017.7
20260508153742 69 44 0.9 3.5 0.00 0.00 0.00 47 1017.8
20260508153242 69 77 0.9 5.2 0.00 0.00 0.00 50 1017.8
20260508152123 69 53 0.9 5.2 0.00 0.00 0.00 46 1017.9
20260508151624 69 133 0.9 2.6 0.00 0.00 0.00 45 1017.9
20260508151124 69 79 0.9 3.5 0.00 0.00 0.00 48 1017.8
20260508150623 70 88 0.0 3.5 0.00 0.00 0.00 47 1017.8
20260508150124 69 43 0.0 4.3 0.00 0.00 0.00 49 1017.7
20260508145621 68 91 0.0 4.3 0.00 0.00 0.00 48 1017.7
20260508145122 69 128 0.9 4.3 0.00 0.00 0.00 50 1017.7
20260508144621 68 54 0.9 4.3 0.00 0.00 0.00 49 1017.7
20260508144121 68 269 0.0 2.6 0.00 0.00 0.00 52 1017.7
20260508143621 68 103 0.0 2.6 0.00 0.00 0.00 49 1017.6
20260508143121 68 113 0.0 2.6 0.00 0.00 0.00 49 1017.7
20260508142622 68 44 0.9 2.6 0.00 0.00 0.00 52 1017.7
20260508142122 68 211 0.9 2.6 0.00 0.00 0.00 49 1017.8
20260508141627 68 131 0.0 1.7 0.00 0.00 0.00 52 1018.0
20260508141620 68 77 0.0 2.6 0.00 0.00 0.00 54 1017.9
20260508141120 68 136 0.0 2.6 0.00 0.00 0.00 56 1017.9
20260508140120 68 136 0.0 1.7 0.00 0.00 0.00 52 1018.1
20260508135618 67 89 0.0 1.7 0.00 0.00 0.00 54 1018.1
20260508135117 67 105 0.0 3.5 0.00 0.01 0.00 55 1018.0
20260508134617 66 126 0.0 3.5 0.00 0.01 0.00 56 1018.1
20260508134114 66 116 0.0 2.6 0.00 0.02 0.00 57 1018.1
20260508133615 66 108 0.0 0.9 0.00 0.03 0.00 60 1018.1
20260508133116 65 121 0.0 1.7 0.00 0.04 0.00 58 1018.1
20260508132613 65 96 0.0 2.6 0.00 0.05 0.00 60 1018.0
20260508132113 65 121 0.0 2.6 0.00 0.06 0.00 57 1018.0
20260508131612 65 108 0.0 0.9 0.00 0.07 0.00 63 1017.9
20260508131112 64 141 0.0 0.9 0.00 0.08 0.00 63 1017.9
20260508130613 63 82 0.0 0.0 0.00 0.09 0.00 64 1017.7
20260508130113 62 82 0.0 0.0 0.00 0.09 0.00 67 1017.7
20260508125614 62 335 0.0 0.9 0.00 0.10 0.00 67 1017.6
20260508125113 61 335 0.0 0.9 0.00 0.10 0.00 69 1017.6
20260508124613 60 335 0.0 0.0 0.00 0.10 0.00 73 1017.6
20260508124117 59 311 0.0 0.0 0.00 0.10 0.00 75 1017.6
20260508124111 58 299 0.0 0.0 0.00 0.10 0.00 75 1017.5
20260508123112 58 299 0.0 0.0 0.00 0.10 0.00 75 1017.5
20260508122610 57 299 0.0 0.0 0.00 0.10 0.00 76 1017.5
20260508122110 57 299 0.0 0.0 0.00 0.10 0.00 77 1017.4
20260508121610 56 299 0.0 0.0 0.00 0.10 0.00 80 1017.3
20260508121111 56 299 0.0 0.0 0.00 0.10 0.00 81 1017.2
20260508120616 54 299 0.0 0.0 0.00 0.10 0.00 84 1017.1
20260508120609 55 299 0.0 0.0 0.00 0.10 0.00 82 1017.2
20260508120109 55 299 0.0 0.0 0.00 0.10 0.00 83 1017.1
20260508115110 54 299 0.0 0.0 0.00 0.11 0.00 86 1017.2
20260508114609 53 299 0.0 0.0 0.00 0.12 0.00 87 1017.0
20260508114117 52 299 0.0 0.0 0.00 0.15 0.00 88 1016.9
20260508114111 53 299 0.0 0.0 0.00 0.13 0.00 87 1016.9
20260508113110 52 299 0.0 0.0 0.00 0.17 0.00 88 1016.8
20260508112615 51 299 0.0 0.0 0.00 0.19 0.00 87 1016.5
20260508112609 51 299 0.0 0.0 0.00 0.18 0.00 88 1016.7
20260508111730 51 299 0.0 0.0 0.00 0.34 0.00 87 1016.2
20260508111615 51 299 0.0 0.0 0.00 0.30 0.00 88 1016.4
20260508111610 51 299 0.0 0.0 0.00 0.22 0.00 87 1016.4
20260508110111 50 299 0.0 0.0 0.00 0.34 0.00 88 1016.1
20260508105609 50 299 0.0 0.0 0.00 0.34 0.00 88 1016.0
20260508105110 50 299 0.0 0.0 0.00 0.34 0.00 88 1015.9
20260508104616 50 299 0.0 0.0 0.00 0.34 0.00 88 1015.8
20260508104611 50 299 0.0 0.0 0.00 0.34 0.00 88 1015.9
20260508104110 50 299 0.0 0.0 0.00 0.34 0.00 88 1015.9
20260508103110 50 299 0.0 0.0 0.00 0.35 0.00 88 1015.8
20260508102610 50 299 0.0 0.0 0.00 0.35 0.00 88 1015.6
20260508102111 50 299 0.0 0.0 0.00 0.38 0.00 88 1015.5
20260508101610 50 299 0.0 0.0 0.00 0.42 0.00 88 1015.5
20260508101116 51 299 0.0 0.0 0.00 0.52 0.00 87 1015.3
20260508101110 50 299 0.0 0.0 0.00 0.49 0.00 87 1015.4
20260508100115 51 299 0.0 0.0 0.00 0.54 0.00 87 1015.3
20260508100111 51 299 0.0 0.0 0.00 0.54 0.00 87 1015.2
20260508095729 51 299 0.0 0.0 0.00 0.54 0.00 86 1015.1
20260508094610 51 299 0.0 0.0 0.00 0.54 0.00 86 1014.9
20260508094111 51 299 0.0 0.0 0.00 0.54 0.00 86 1015.0
20260508093610 51 299 0.0 0.0 0.00 0.54 0.00 84 1015.0
20260508093111 51 299 0.0 0.0 0.00 0.54 0.00 84 1015.0
20260508092609 52 299 0.0 0.0 0.00 0.54 0.00 84 1015.1
20260508092107 52 299 0.0 0.0 0.00 0.54 0.00 84 1015.0
20260508091610 52 299 0.0 0.0 0.00 0.55 0.00 84 1014.9
20260508091604 52 299 0.0 0.0 0.00 0.55 0.00 85 1014.6
20260508091209 52 299 0.0 0.0 0.00 0.55 0.00 85 1014.8
20260508090104 52 299 0.0 0.0 0.00 0.55 0.00 85 1014.6
20260508085603 52 299 0.0 0.0 0.00 0.55 0.00 85 1014.6
20260508085102 52 299 0.0 0.0 0.00 0.55 0.00 85 1014.8
20260508084602 52 299 0.0 0.0 0.00 0.56 0.00 86 1014.6
20260508084103 52 299 0.0 0.0 0.00 0.58 0.00 86 1014.8
20260508083607 52 299 0.0 0.0 0.00 0.63 0.00 85 1014.5
20260508083603 52 299 0.0 0.0 0.00 0.60 0.00 85 1014.6
20260508083221 53 299 0.0 0.0 0.00 0.73 0.00 86 1014.5
20260508082601 52 299 0.0 0.0 0.00 0.66 0.00 85 1014.4
20260508082102 52 299 0.0 0.0 0.00 0.70 0.00 86 1014.4
20260508081101 53 299 0.0 0.0 0.00 0.78 0.00 85 1014.4
20260508080602 52 299 0.0 0.0 0.00 0.83 0.00 84 1014.5
20260508075600 52 299 0.0 0.0 0.00 0.90 0.00 87 1014.5
20260508075106 51 299 0.0 0.0 0.00 0.92 0.00 90 1014.6
20260508075101 51 299 0.0 0.0 0.00 0.91 0.00 89 1014.5
20260508074100 51 299 0.0 0.0 0.00 0.92 0.00 90 1014.4
20260508073600 51 299 0.0 0.0 0.00 0.93 0.00 89 1014.4
20260508073102 51 299 0.0 0.0 0.00 0.94 0.00 89 1014.4
20260508072558 51 299 0.0 0.0 0.00 0.94 0.00 89 1014.4
20260508072059 51 299 0.0 0.0 0.00 0.95 0.00 89 1014.4
20260508071605 51 299 0.0 0.0 0.00 1.01 0.00 88 1014.4
20260508071559 51 299 0.0 0.0 0.00 0.96 0.00 89 1014.5
20260508071100 51 299 0.0 0.0 0.00 0.98 0.00 89 1014.5
20260508070059 51 299 0.0 0.0 0.00 1.02 0.00 88 1014.3
20260508065559 51 299 0.0 0.0 0.00 1.05 0.00 88 1014.2
20260508065100 51 299 0.0 0.0 0.00 1.06 0.00 89 1014.1
20260508064557 51 299 0.0 0.0 0.00 1.07 0.00 88 1014.2
20260508064101 51 299 0.0 0.0 0.00 1.11 0.00 88 1014.1
20260508064056 51 299 0.0 0.0 0.00 1.09 0.00 88 1014.1
20260508063056 51 299 0.0 0.0 0.00 1.14 0.00 88 1014.0
20260508062556 51 299 0.0 0.0 0.00 1.17 0.00 88 1014.1
20260508062056 51 299 0.0 0.0 0.00 1.18 0.00 88 1014.0
20260508061557 51 299 0.0 0.0 0.00 1.19 0.00 88 1014.0
20260508061055 51 299 0.0 0.0 0.00 1.19 0.00 87 1014.1
20260508060555 52 299 0.0 0.0 0.00 1.23 0.00 87 1014.1
20260508060054 52 299 0.0 0.0 0.00 1.27 0.00 87 1014.2
20260508055600 52 299 0.0 0.0 0.00 1.36 0.00 87 1014.3
20260508055554 52 299 0.0 0.0 0.00 1.33 0.00 87 1014.2
20260508054600 52 299 0.0 0.0 0.00 1.39 0.00 87 1014.3
20260508054554 52 299 0.0 0.0 0.00 1.38 0.00 87 1014.3
20260508054215 53 299 0.0 0.0 0.00 1.42 0.00 87 1014.4
20260508053055 53 299 0.0 0.0 0.00 1.44 0.00 87 1014.3
20260508052556 53 299 0.0 0.0 0.00 1.45 0.00 87 1014.3
20260508052052 53 299 0.0 0.0 0.00 1.48 0.00 86 1014.2
20260508051553 53 299 0.0 0.0 0.00 1.53 0.00 86 1014.1
20260508051053 53 299 0.0 0.0 0.00 1.61 0.00 86 1014.3
20260508050552 54 299 0.0 0.0 0.00 1.67 0.00 85 1014.3
20260508050052 54 299 0.0 0.0 0.00 1.76 0.00 85 1014.2
20260508045557 54 299 0.0 0.0 0.00 1.91 0.00 84 1014.0
20260508045552 54 299 0.0 0.0 0.00 1.81 0.00 86 1014.2
20260508044552 54 299 0.0 0.0 0.00 1.96 0.00 85 1013.9
20260508044053 54 299 0.0 0.0 0.00 1.98 0.00 86 1013.9
20260508043551 54 299 0.0 0.0 0.00 1.98 0.00 86 1013.9
20260508043051 54 299 0.0 0.0 0.00 1.98 0.00 86 1013.9
20260508042551 55 299 0.0 0.0 0.00 1.98 0.00 86 1013.9
20260508042051 55 299 0.0 0.0 0.00 1.99 0.00 86 1013.8
20260508041550 55 299 0.0 0.0 0.00 1.99 0.00 85 1013.7
20260508041056 55 299 0.0 0.0 0.00 1.99 0.00 84 1013.6
20260508041050 55 299 0.0 0.0 0.00 1.99 0.00 84 1013.6
20260508040049 55 299 0.0 0.0 0.00 2.00 0.00 84 1013.7
20260508035551 55 299 0.0 0.0 0.00 2.00 2.00 84 1013.7
20260508035048 56 299 0.0 0.0 0.00 2.00 2.00 84 1013.9
20260508034549 56 299 0.0 0.0 0.00 2.00 2.00 84 1013.9
20260508034046 56 299 0.0 0.0 0.00 2.00 2.00 83 1013.7
20260508033547 56 299 0.0 0.0 0.00 2.00 2.00 82 1013.8
20260508033047 56 299 0.0 0.0 0.00 2.00 2.00 81 1013.7
20260508032547 56 299 0.0 0.0 0.00 2.00 2.00 79 1013.8
20260508032047 56 299 0.0 0.0 0.00 2.00 2.00 80 1013.7
20260508031547 57 299 0.0 0.0 0.00 2.00 2.00 81 1013.7
20260508031047 57 299 0.0 0.0 0.00 2.00 2.00 82 1013.7
20260508030546 57 299 0.0 0.0 0.00 2.00 2.00 81 1013.6
20260508030045 57 299 0.0 0.0 0.00 2.00 2.00 78 1013.5
20260508025544 58 299 0.0 0.0 0.00 2.00 2.00 79 1013.5
20260508025043 58 299 0.0 0.0 0.00 2.00 2.00 77 1013.6